Crosby, ND

3:55 AM CST on January 20, 2018 (GMT -0600)
Crosby

Weather History for KD50 - January, 2013

Change the Weather History Date:

Tuesday, January 15, 2013

  Actual Average (KISN) Record (KISN)
Temperature  
Mean Temperature 18 °F -  
Max Temperature 37 °F 22 °F 47 °F (1914)
Min Temperature -2 °F -3 °F -42 °F (1907)
Degree Days  
Heating Degree Days 48    
Moisture  
Dew Point 18 °F    
Average Humidity 88    
Maximum Humidity 100    
Minimum Humidity 79    
Precipitation  
Precipitation 0.08 in - - ()
Sea Level Pressure  
Sea Level Pressure 29.71 in    
Wind  
Wind Speed 15 mph (SW)    
Max Wind Speed 29 mph    
Max Gust Speed 33 mph    
Visibility 9 miles    
Events Rain , Snow    
Averages and records for this station are not official NWS values.
T = Trace of Precipitation, MM = Missing Value Source: NWS Daily Summary

Daily Weather History Graph

Daily Weather History Graph

Search for Another Location

Airport or City:

Trip Planner

Search our weather history database for the weather conditions in past years. The results will help you decide how hot, cold, wet, or windy it might be!

Date:

Astronomy

Jan. 15, 2013 Rise Set
Actual Time 8:41 AM CST 5:24 PM CST
Civil Twilight 8:05 AM CST 6:00 PM CST
Nautical Twilight 7:26 AM CST 6:39 PM CST
Astronomical Twilight 6:48 AM CST 7:17 PM CST
Moon 10:21 AM CST (1/15) 10:46 PM CST (1/15)
Length of Visible Light 9h 55m
Length of Day
8h 43m
Waxing Crescent, 19% of the Moon is Illuminated
Jan 15
Waxing Crescent
Jan 18
First Quarter
Jan 26
Full
Feb 3
Last Quarter
Feb 10
New

Hourly Weather History & Observations

Time (CST) Temp. Windchill Dew Point Humidity Pressure Visibility Wind Dir Wind Speed Gust Speed Precip Events Conditions
12:15 AM -2.2 °F -18.9 °F -5.8 °F 85% 29.92 in 10.0 mi SSW 10.4 mph - N/A   Mostly Cloudy
12:35 AM -0.4 °F -16.7 °F -2.2 °F 92% 29.91 in - South 10.4 mph - N/A   Overcast
12:55 AM 1.4 °F -14.5 °F -0.4 °F 92% 29.91 in 10.0 mi South 10.4 mph - N/A   Overcast
1:15 AM 1.4 °F -14.5 °F -2.2 °F 85% 29.90 in - SSW 10.4 mph - N/A   Overcast
1:35 AM 1.4 °F -13.5 °F -0.4 °F 92% 29.89 in 10.0 mi SSW 9.2 mph - N/A   Overcast
2:15 AM 5.0 °F -6.9 °F 1.4 °F 85% 29.88 in 10.0 mi SSW 6.9 mph - N/A   Overcast
2:35 AM 5.0 °F -5.6 °F 1.4 °F 85% 29.88 in 10.0 mi SSW 5.8 mph - N/A   Overcast
2:55 AM 5.0 °F -10.0 °F 1.4 °F 85% 29.87 in 10.0 mi SSW 10.4 mph - N/A   Overcast
3:15 AM 5.0 °F -11.6 °F 1.4 °F 85% 29.87 in - SSW 12.7 mph - N/A   Mostly Cloudy
3:35 AM 5.0 °F -12.3 °F 1.4 °F 85% 29.85 in - SSW 13.8 mph - N/A   Unknown
3:55 AM 3.2 °F -13.9 °F -0.4 °F 85% 29.84 in - SSW 12.7 mph - N/A   Unknown
4:15 AM 3.2 °F -14.6 °F -0.4 °F 85% 29.84 in - SSW 13.8 mph - N/A   Mostly Cloudy
4:55 AM -0.4 °F -19.2 °F -4.0 °F 85% 29.83 in - SSW 13.8 mph - N/A   Unknown
5:15 AM -0.4 °F -19.9 °F -2.2 °F 92% 29.82 in - SSW 15.0 mph - N/A   Unknown
5:35 AM 1.4 °F -16.1 °F -0.4 °F 92% 29.81 in - SSW 12.7 mph - N/A   Mostly Cloudy
5:55 AM 3.2 °F -15.3 °F -0.4 °F 85% 29.80 in - SSW 15.0 mph - N/A   Mostly Cloudy
6:15 AM 6.8 °F -10.0 °F 3.2 °F 85% 29.80 in - SSW 13.8 mph - N/A   Overcast
6:35 AM 6.8 °F -7.8 °F 5.0 °F 92% 29.80 in 10.0 mi SSW 10.4 mph - N/A   Overcast
6:55 AM 8.6 °F -3.7 °F 5.0 °F 85% 29.80 in 10.0 mi South 8.1 mph - N/A   Overcast
7:15 AM 10.4 °F 0.8 °F 6.8 °F 85% 29.80 in 10.0 mi South 5.8 mph - N/A   Overcast
7:35 AM 10.4 °F -3.3 °F 6.8 °F 85% 29.79 in 10.0 mi SSW 10.4 mph - N/A   Overcast
7:55 AM 12.2 °F -1.0 °F 8.6 °F 85% 29.79 in 10.0 mi SSW 10.4 mph - N/A   Overcast
8:15 AM 14.0 °F 3.9 °F 8.6 °F 79% 29.79 in 10.0 mi SSW 6.9 mph - N/A   Overcast
8:35 AM 14.0 °F -0.2 °F 8.6 °F 79% 29.78 in 10.0 mi SSW 12.7 mph - N/A   Overcast
8:55 AM 14.0 °F -2.5 °F 10.4 °F 86% 29.77 in 10.0 mi SW 17.3 mph - N/A   Unknown
9:15 AM 15.8 °F 0.9 °F 10.4 °F 79% 29.77 in 10.0 mi SW 15.0 mph - N/A   Overcast
9:35 AM 15.8 °F 0.3 °F 12.2 °F 86% 29.77 in 10.0 mi SW 16.1 mph - N/A   Overcast
9:55 AM 15.8 °F 0.3 °F 14.0 °F 93% 29.77 in 10.0 mi SSW 16.1 mph - N/A   Overcast
10:15 AM 17.6 °F 3.2 °F 14.0 °F 86% 29.76 in 10.0 mi SSW 15.0 mph - N/A   Overcast
10:35 AM 17.6 °F 3.2 °F 15.8 °F 93% 29.76 in 10.0 mi SSW 15.0 mph - N/A   Overcast
10:55 AM 19.4 °F 6.0 °F 15.8 °F 86% 29.74 in 10.0 mi SSW 13.8 mph - N/A   Overcast
11:15 AM 19.4 °F 4.1 °F 17.6 °F 93% 29.73 in 10.0 mi SSW 18.4 mph - N/A   Overcast
11:35 AM 23.0 °F 8.7 °F 19.4 °F 86% 29.73 in 10.0 mi SW 18.4 mph 23.0 mph N/A   Overcast
11:55 AM 23.0 °F 9.2 °F 19.4 °F 86% 29.71 in 5.0 mi SW 17.3 mph - N/A Snow Light Snow
12:15 PM 24.8 °F 11.5 °F 23.0 °F 93% 29.70 in 3.0 mi SW 17.3 mph - N/A Rain Light Freezing Rain
12:35 PM 24.8 °F 11.5 °F 23.0 °F 93% 29.68 in 1.8 mi SW 17.3 mph 21.9 mph N/A Rain Light Freezing Rain
12:55 PM 26.6 °F 13.8 °F 24.8 °F 93% 29.66 in 3.0 mi SW 17.3 mph 21.9 mph N/A Rain Light Freezing Rain
1:15 PM 26.6 °F 12.7 °F 24.8 °F 93% 29.64 in 1.5 mi SW 20.7 mph - N/A Rain Light Freezing Rain
1:35 PM 28.4 °F 14.4 °F 26.6 °F 93% 29.63 in 1.5 mi SW 23.0 mph 28.8 mph N/A Snow Light Snow
1:55 PM 28.4 °F 14.4 °F 28.4 °F 100% 29.62 in 2.5 mi SW 23.0 mph - 0.01 in Snow Light Snow
2:15 PM 30.2 °F 17.1 °F 28.4 °F 93% 29.60 in 2.0 mi SW 21.9 mph - 0.03 in Snow Light Snow
2:35 PM 32.0 °F 18.9 °F 30.2 °F 93% 29.59 in 3.0 mi SW 24.2 mph 29.9 mph 0.07 in Snow Light Snow
2:55 PM 32.0 °F 18.9 °F 32.0 °F 100% 29.59 in 10.0 mi WSW 24.2 mph - 0.07 in Rain Light Rain
3:15 PM 32.0 °F 18.4 °F 32.0 °F 100% 29.58 in 9.0 mi WSW 26.5 mph 31.1 mph N/A Rain Light Rain
3:35 PM 33.8 °F 20.8 °F 32.0 °F 93% 29.57 in 10.0 mi WSW 26.5 mph - N/A   Overcast
3:55 PM 33.8 °F 21.6 °F 32.0 °F 93% 29.57 in 8.0 mi WSW 23.0 mph 32.2 mph N/A Rain Light Rain
4:15 PM 35.6 °F 24.2 °F 32.0 °F 87% 29.58 in 5.0 mi WSW 21.9 mph - N/A Rain Light Rain
4:35 PM 35.6 °F 23.7 °F 32.0 °F 87% 29.58 in 9.0 mi West 24.2 mph 29.9 mph N/A Rain Light Rain
4:55 PM 35.6 °F 23.7 °F 32.0 °F 87% 29.57 in 10.0 mi WNW 24.2 mph - N/A   Overcast
5:15 PM 37.4 °F 25.2 °F 32.0 °F 81% 29.57 in 10.0 mi WNW 28.8 mph - N/A   Overcast
5:35 PM 37.4 °F 25.2 °F 32.0 °F 81% 29.58 in 10.0 mi WNW 28.8 mph 33.4 mph N/A   Overcast
5:55 PM 37.4 °F 25.4 °F 32.0 °F 81% 29.58 in 10.0 mi WNW 27.6 mph - N/A   Overcast
6:15 PM 37.4 °F 25.6 °F 32.0 °F 81% 29.59 in 10.0 mi WNW 26.5 mph 32.2 mph N/A   Overcast
6:35 PM 37.4 °F 25.6 °F 32.0 °F 81% 29.60 in 10.0 mi WNW 26.5 mph 32.2 mph N/A   Overcast
6:55 PM 35.6 °F 24.0 °F 32.0 °F 87% 29.60 in 10.0 mi WNW 23.0 mph 32.2 mph N/A   Overcast
7:15 PM 35.6 °F 24.0 °F 32.0 °F 87% 29.60 in 10.0 mi WNW 23.0 mph 28.8 mph N/A   Overcast
7:35 PM 35.6 °F 23.4 °F 32.0 °F 87% 29.61 in 10.0 mi WNW 25.3 mph 31.1 mph N/A   Overcast
7:55 PM 35.6 °F 23.7 °F 32.0 °F 87% 29.61 in 10.0 mi WNW 24.2 mph - N/A   Mostly Cloudy
8:15 PM 35.6 °F 23.4 °F 32.0 °F 87% 29.62 in 10.0 mi WNW 25.3 mph - N/A   Mostly Cloudy
8:35 PM 35.6 °F 23.2 °F 32.0 °F 87% 29.64 in 10.0 mi WNW 26.5 mph 32.2 mph N/A   Mostly Cloudy
8:55 PM 35.6 °F 24.8 °F 32.0 °F 87% 29.63 in 10.0 mi WNW 19.6 mph 28.8 mph N/A Rain Light Rain
9:15 PM 35.6 °F 25.2 °F 32.0 °F 87% 29.63 in 10.0 mi WNW 18.4 mph - N/A   Mostly Cloudy
9:35 PM 35.6 °F 24.8 °F 32.0 °F 87% 29.63 in 10.0 mi West 19.6 mph - N/A   Mostly Cloudy
9:55 PM 35.6 °F 24.2 °F 32.0 °F 87% 29.63 in 10.0 mi West 21.9 mph - N/A   Overcast
10:15 PM 35.6 °F 24.8 °F 32.0 °F 87% 29.64 in 10.0 mi West 19.6 mph - N/A   Overcast
10:35 PM 35.6 °F 24.5 °F 32.0 °F 87% 29.64 in 10.0 mi West 20.7 mph - N/A   Overcast
10:55 PM 35.6 °F 25.9 °F 32.0 °F 87% 29.64 in 10.0 mi West 16.1 mph - N/A   Mostly Cloudy
11:15 PM 35.6 °F 25.2 °F 32.0 °F 87% 29.66 in 10.0 mi WNW 18.4 mph - N/A   Scattered Clouds
11:35 PM 35.6 °F 25.2 °F 32.0 °F 87% 29.66 in 10.0 mi West 18.4 mph - N/A   Mostly Cloudy